When you browse on this site, cookies collect data to enhance your experience and personalize the content and advertising you see.
Visit our Privacy Policy to learn more. By continuing to use the site, you agree to this use of cookies and data.
  • In Sweden
  • List of Countries
  • For 7 days
  • Water Temperature
  • Satellite Maps
  • Weather Map
  • Weather Widgets
  • user-avatar
    Login

    Hourly Weather Paseka

    Today, 19 December, Wednesday

    Time Temperature Precipitation Wind Pressure Humidity
    00:00 -7°C° 0.2 mm 5 mps 750 mmHg 88%
    01:00 -8°C° 0.2 mm 5 mps 750 mmHg 89%
    02:00 -8°C° 0.2 mm 5 mps 749 mmHg 89%
    03:00 -8°C° 0.2 mm 5 mps 749 mmHg 89%
    04:00 -9°C° 0.2 mm 4 mps 749 mmHg 90%
    05:00 -10°C° 0 mm 4 mps 748 mmHg 91%
    06:00 -10°C° 0.2 mm 4 mps 748 mmHg 91%
    07:00 -10°C° 0.2 mm 4 mps 748 mmHg 91%
    08:00 -11°C° 0.2 mm 4 mps 748 mmHg 92%
    09:00 -11°C° 0.2 mm 4 mps 748 mmHg 91%
    10:00 -11°C° 0.2 mm 4 mps 748 mmHg 90%
    11:00 -11°C° 0.2 mm 4 mps 749 mmHg 89%
    12:00 -11°C° 0.1 mm 4 mps 749 mmHg 89%
    13:00 -12°C° 0.1 mm 4 mps 749 mmHg 88%
    14:00 -12°C° 0.1 mm 4 mps 750 mmHg 87%
    15:00 -15°C° 0.1 mm 5 mps 751 mmHg 87%
    16:00 -17°C° 0.1 mm 5 mps 751 mmHg 87%
    17:00 -19°C° 0.1 mm 5 mps 752 mmHg 87%
    18:00 -21°C° 0 mm 5 mps 753 mmHg 88%
    19:00 -25°C° 0 mm 5 mps 754 mmHg 89%
    20:00 -27°C° 0 mm 5 mps 755 mmHg 90%
    21:00 -29°C° 0 mm 5 mps 756 mmHg 90%
    22:00 -30°C° 0 mm 4 mps 756 mmHg 91%
    23:00 -31°C° 0 mm 4 mps 757 mmHg 92%

    Tomorrow, 20 December, Thursday

    Time Temperature Precipitation Wind Pressure Humidity
    00:00 -32°C° 0 mm 4 mps 758 mmHg 92%
    01:00 -33°C° 0 mm 4 mps 758 mmHg 92%
    02:00 -33°C° 0 mm 4 mps 759 mmHg 93%
    03:00 -33°C° 0 mm 4 mps 759 mmHg 93%
    04:00 -34°C° 0 mm 4 mps 760 mmHg 93%
    05:00 -34°C° 0 mm 4 mps 760 mmHg 93%
    06:00 -34°C° 0 mm 4 mps 761 mmHg 93%
    07:00 -34°C° 0 mm 4 mps 761 mmHg 93%
    08:00 -34°C° 0 mm 4 mps 762 mmHg 93%
    09:00 -34°C° 0 mm 4 mps 762 mmHg 93%
    10:00 -33°C° 0 mm 4 mps 763 mmHg 92%
    11:00 -33°C° 0 mm 5 mps 763 mmHg 91%
    12:00 -33°C° 0 mm 5 mps 764 mmHg 91%
    13:00 -31°C° 0 mm 4 mps 764 mmHg 91%
    14:00 -31°C° 0 mm 4 mps 765 mmHg 91%
    15:00 -31°C° 0 mm 4 mps 765 mmHg 91%
    16:00 -31°C° 0 mm 4 mps 765 mmHg 92%
    17:00 -31°C° 0 mm 4 mps 766 mmHg 92%
    18:00 -31°C° 0 mm 4 mps 766 mmHg 92%
    19:00 -30°C° 0 mm 4 mps 766 mmHg 93%
    20:00 -30°C° 0 mm 4 mps 766 mmHg 93%
    21:00 -29°C° 0.1 mm 4 mps 766 mmHg 93%
    22:00 -28°C° 0.1 mm 5 mps 765 mmHg 93%
    23:00 -27°C° 0.1 mm 5 mps 765 mmHg 93%

    Day after tomorrow, 21 December, Friday

    Time Temperature Precipitation Wind Pressure Humidity
    00:00 -25°C° 0.3 mm 5 mps 764 mmHg 92%
    01:00 -23°C° 0.3 mm 6 mps 763 mmHg 90%
    02:00 -21°C° 0.3 mm 6 mps 763 mmHg 88%
    03:00 -21°C° 0.1 mm 7 mps 762 mmHg 87%
    04:00 -20°C° 0.1 mm 7 mps 761 mmHg 86%
    05:00 -19°C° 0.1 mm 7 mps 761 mmHg 84%
    06:00 -19°C° 0.1 mm 7 mps 760 mmHg 85%
    07:00 -18°C° 0.1 mm 7 mps 760 mmHg 86%
    08:00 -18°C° 0.1 mm 7 mps 760 mmHg 86%
    09:00 -17°C° 0.1 mm 7 mps 759 mmHg 85%
    10:00 -17°C° 0.1 mm 7 mps 759 mmHg 85%
    11:00 -17°C° 0.1 mm 8 mps 759 mmHg 84%
    12:00 -17°C° 0.2 mm 8 mps 758 mmHg 84%
    13:00 -17°C° 0.2 mm 7 mps 758 mmHg 85%
    14:00 -17°C° 0.2 mm 7 mps 758 mmHg 85%
    15:00 -17°C° 0.2 mm 7 mps 757 mmHg 86%
    16:00 -17°C° 0.2 mm 7 mps 757 mmHg 86%
    17:00 -17°C° 0.2 mm 7 mps 757 mmHg 86%
    18:00 -17°C° 0.2 mm 7 mps 757 mmHg 87%
    19:00 -16°C° 0.2 mm 6 mps 756 mmHg 88%
    20:00 -16°C° 0.2 mm 6 mps 756 mmHg 88%
    21:00 -16°C° 0.2 mm 6 mps 756 mmHg 89%
    22:00 -17°C° 0.2 mm 5 mps 756 mmHg 89%
    23:00 -17°C° 0.2 mm 5 mps 756 mmHg 90%

    22 December, Saturday

    Time Temperature Precipitation Wind Pressure Humidity
    00:00 -17°C° 0.2 mm 5 mps 756 mmHg 90%
    01:00 -17°C° 0.2 mm 5 mps 756 mmHg 91%
    02:00 -16°C° 0.2 mm 4 mps 756 mmHg 91%
    03:00 -16°C° 0.2 mm 4 mps 756 mmHg 92%
    04:00 -17°C° 0.2 mm 4 mps 756 mmHg 92%
    05:00 -17°C° 0.2 mm 4 mps 757 mmHg 92%
    06:00 -17°C° 0.2 mm 3 mps 757 mmHg 93%
    07:00 -17°C° 0.2 mm 3 mps 757 mmHg 93%
    08:00 -18°C° 0.2 mm 3 mps 758 mmHg 94%
    09:00 -21°C° 0.1 mm 3 mps 758 mmHg 94%
    10:00 -23°C° 0.1 mm 3 mps 759 mmHg 94%
    11:00 -25°C° 0.1 mm 3 mps 760 mmHg 93%
    12:00 -27°C° 0 mm 3 mps 760 mmHg 93%
    13:00 -31°C° 0 mm 3 mps 761 mmHg 92%
    14:00 -33°C° 0 mm 3 mps 762 mmHg 92%
    15:00 -34°C° 0 mm 2 mps 762 mmHg 92%
    16:00 -35°C° 0 mm 2 mps 763 mmHg 92%
    17:00 -37°C° 0 mm 2 mps 764 mmHg 92%
    18:00 -38°C° 0 mm 2 mps 764 mmHg 92%
    19:00 -39°C° 0 mm 2 mps 765 mmHg 91%
    20:00 -39°C° 0 mm 2 mps 766 mmHg 91%
    21:00 -40°C° 0 mm 2 mps 766 mmHg 91%
    22:00 -40°C° 0 mm 2 mps 767 mmHg 90%
    23:00 -41°C° 0 mm 2 mps 768 mmHg 90%

    23 December, Sunday

    Time Temperature Precipitation Wind Pressure Humidity
    00:00 -41°C° 0 mm 2 mps 768 mmHg 90%
    01:00 -41°C° 0 mm 2 mps 769 mmHg 89%
    02:00 -42°C° 0 mm 2 mps 769 mmHg 89%
    03:00 -42°C° 0 mm 2 mps 770 mmHg 89%
    04:00 -42°C° 0 mm 2 mps 770 mmHg 88%
    05:00 -42°C° 0 mm 2 mps 771 mmHg 88%
    06:00 -42°C° 0 mm 2 mps 771 mmHg 87%
    07:00 -42°C° 0 mm 2 mps 772 mmHg 87%
    08:00 -42°C° 0 mm 2 mps 773 mmHg 87%
    09:00 -41°C° 0 mm 2 mps 773 mmHg 86%
    10:00 -40°C° 0 mm 2 mps 773 mmHg 86%
    11:00 -39°C° 0 mm 2 mps 774 mmHg 85%
    12:00 -39°C° 0 mm 2 mps 774 mmHg 86%
    13:00 -36°C° 0 mm 1 mps 775 mmHg 87%
    14:00 -36°C° 0 mm 1 mps 775 mmHg 87%
    15:00 -36°C° 0 mm 1 mps 776 mmHg 87%
    16:00 -37°C° 0 mm 1 mps 776 mmHg 86%
    17:00 -37°C° 0 mm 1 mps 776 mmHg 86%
    18:00 -37°C° 0 mm 1 mps 777 mmHg 86%
    19:00 -37°C° 0 mm 1 mps 777 mmHg 86%
    20:00 -37°C° 0 mm 1 mps 778 mmHg 85%
    21:00 -37°C° 0 mm 1 mps 778 mmHg 85%
    22:00 -37°C° 0 mm 1 mps 778 mmHg 85%
    23:00 -36°C° 0 mm 0 mps 779 mmHg 85%

    24 December, Monday

    Time Temperature Precipitation Wind Pressure Humidity
    00:00 -36°C° 0 mm 0 mps 779 mmHg 85%
    01:00 -36°C° 0 mm 0 mps 779 mmHg 86%
    02:00 -36°C° 0 mm 0 mps 779 mmHg 86%
    03:00 -36°C° 0 mm 0 mps 780 mmHg 86%
    04:00 -36°C° 0 mm 0 mps 780 mmHg 86%
    05:00 -36°C° 0 mm 0 mps 780 mmHg 86%
    06:00 -36°C° 0 mm 0 mps 780 mmHg 87%
    07:00 -36°C° 0 mm 0 mps 781 mmHg 87%
    08:00 -36°C° 0 mm 0 mps 781 mmHg 87%
    09:00 -34°C° 0 mm 0 mps 781 mmHg 87%
    10:00 -33°C° 0 mm 0 mps 781 mmHg 87%
    11:00 -33°C° 0 mm 1 mps 781 mmHg 87%
    12:00 -33°C° 0 mm 1 mps 781 mmHg 88%
    13:00 -33°C° 0 mm 1 mps 781 mmHg 88%
    14:00 -33°C° 0 mm 1 mps 781 mmHg 89%
    15:00 -33°C° 0 mm 1 mps 781 mmHg 88%
    16:00 -34°C° 0 mm 1 mps 781 mmHg 88%
    17:00 -34°C° 0 mm 1 mps 781 mmHg 88%
    18:00 -34°C° 0 mm 1 mps 781 mmHg 88%
    19:00 -34°C° 0 mm 1 mps 781 mmHg 88%
    20:00 -34°C° 0 mm 1 mps 781 mmHg 87%
    21:00 -34°C° 0 mm 1 mps 781 mmHg 87%
    22:00 -34°C° 0 mm 1 mps 781 mmHg 87%
    23:00 -34°C° 0 mm 1 mps 781 mmHg 87%
    Show more